Wetterdaten: Dienstag, 18.05.2021
Datum Zeit Temp. A. Temp. A. min Temp. A. max Feuchte A. Bod.Feucht 4 Luftdruck Regen Wind Richtung Richtung Sonnenschein ET Solar Taupunkt Windchill Windben Empfang
18.05.2021 00:00 8,4 C 8,4 C 8,4 C 95 % 0 cb 1012,3 hPa 0,0 l/m 1,6 km/h (1 Bft) NW 315 0 min 0,000 mm 0 W/m 7,6 C 8,4 C 8,0 km/h (2 Bft) 99,56 %
18.05.2021 00:10 8,4 C 8,4 C 8,5 C 95 % 0 cb 1012,2 hPa 0,0 l/m 1,6 km/h (1 Bft) NW 315 0 min 0,000 mm 0 W/m 7,6 C 8,4 C 8,0 km/h (2 Bft) 100,00 %
18.05.2021 00:20 8,5 C 8,4 C 8,5 C 95 % 0 cb 1012,2 hPa 0,2 l/m 1,6 km/h (1 Bft) NW 315 0 min 0,000 mm 0 W/m 7,7 C 8,5 C 8,0 km/h (2 Bft) 100,00 %
18.05.2021 00:30 8,4 C 8,4 C 8,5 C 95 % 0 cb 1012,3 hPa 0,0 l/m 1,6 km/h (1 Bft) NW 315 0 min 0,000 mm 0 W/m 7,6 C 8,4 C 8,0 km/h (2 Bft) 100,00 %
18.05.2021 00:40 8,3 C 8,3 C 8,4 C 95 % 0 cb 1012,3 hPa 0,0 l/m 1,6 km/h (1 Bft) NW 315 0 min 0,000 mm 0 W/m 7,5 C 8,3 C 4,8 km/h (1 Bft) 100,00 %
18.05.2021 00:50 8,2 C 8,2 C 8,3 C 95 % 0 cb 1012,4 hPa 0,0 l/m 0,0 km/h (0 Bft) NW 315 0 min 0,000 mm 0 W/m 7,4 C 8,2 C 3,2 km/h (1 Bft) 99,56 %
18.05.2021 01:00 8,2 C 8,2 C 8,2 C 95 % 0 cb 1012,8 hPa 0,0 l/m 0,0 km/h (0 Bft) NW 315 0 min 0,000 mm 0 W/m 7,4 C 8,2 C 4,8 km/h (1 Bft) 100,00 %
18.05.2021 01:10 8,2 C 8,2 C 8,2 C 96 % 0 cb 1013,2 hPa 0,0 l/m 3,2 km/h (1 Bft) NW 315 0 min 0,000 mm 0 W/m 7,6 C 8,2 C 16,1 km/h (3 Bft) 100,00 %
18.05.2021 01:20 8,2 C 8,2 C 8,2 C 95 % 0 cb 1013,1 hPa 0,2 l/m 6,4 km/h (2 Bft) W-SW 247 0 min 0,000 mm 0 W/m 7,4 C 7,3 C 20,9 km/h (4 Bft) 100,00 %
18.05.2021 01:30 8,1 C 8,1 C 8,2 C 95 % 0 cb 1012,9 hPa 0,6 l/m 1,6 km/h (1 Bft) W-SW 247 0 min 0,000 mm 0 W/m 7,3 C 8,1 C 8,0 km/h (2 Bft) 100,00 %
18.05.2021 01:40 8,1 C 8,1 C 8,2 C 96 % 0 cb 1012,9 hPa 0,0 l/m 0,0 km/h (0 Bft) W-SW 247 0 min 0,000 mm 0 W/m 7,5 C 8,1 C 4,8 km/h (1 Bft) 99,56 %
18.05.2021 01:50 8,1 C 8,1 C 8,1 C 96 % 0 cb 1013,0 hPa 0,0 l/m 0,0 km/h (0 Bft) W-SW 247 0 min 0,000 mm 0 W/m 7,5 C 8,1 C 3,2 km/h (1 Bft) 100,00 %
18.05.2021 02:00 8,1 C 8,1 C 8,1 C 96 % 0 cb 1012,9 hPa 0,0 l/m 0,0 km/h (0 Bft) W-SW 247 0 min 0,000 mm 0 W/m 7,5 C 8,1 C 3,2 km/h (1 Bft) 100,00 %
18.05.2021 02:10 8,1 C 8,1 C 8,1 C 96 % 0 cb 1012,9 hPa 0,0 l/m 0,0 km/h (0 Bft) W-SW 247 0 min 0,000 mm 0 W/m 7,5 C 8,1 C 3,2 km/h (1 Bft) 100,00 %
18.05.2021 02:20 8,2 C 8,1 C 8,2 C 96 % 0 cb 1013,0 hPa 0,0 l/m 0,0 km/h (0 Bft) W-SW 247 0 min 0,000 mm 0 W/m 7,6 C 8,2 C 4,8 km/h (1 Bft) 100,00 %
18.05.2021 02:30 8,3 C 8,2 C 8,3 C 96 % 0 cb 1013,0 hPa 0,0 l/m 1,6 km/h (1 Bft) W-SW 247 0 min 0,000 mm 0 W/m 7,7 C 8,3 C 4,8 km/h (1 Bft) 99,56 %
18.05.2021 02:40 8,3 C 8,3 C 8,3 C 96 % 0 cb 1013,1 hPa 0,0 l/m 0,0 km/h (0 Bft) W-SW 247 0 min 0,000 mm 0 W/m 7,7 C 8,3 C 3,2 km/h (1 Bft) 100,00 %
18.05.2021 02:50 8,4 C 8,3 C 8,4 C 96 % 0 cb 1013,0 hPa 0,0 l/m 1,6 km/h (1 Bft) W-SW 247 0 min 0,000 mm 0 W/m 7,8 C 8,4 C 6,4 km/h (2 Bft) 100,00 %
18.05.2021 03:00 8,5 C 8,4 C 8,5 C 96 % 0 cb 1013,1 hPa 0,0 l/m 3,2 km/h (1 Bft) W-SW 247 0 min 0,000 mm 0 W/m 7,9 C 8,5 C 12,9 km/h (3 Bft) 100,00 %
18.05.2021 03:10 8,5 C 8,5 C 8,6 C 96 % 0 cb 1013,0 hPa 0,0 l/m 1,6 km/h (1 Bft) W-NW 292 0 min 0,000 mm 0 W/m 7,9 C 8,5 C 9,7 km/h (2 Bft) 100,00 %
18.05.2021 03:20 8,5 C 8,5 C 8,6 C 96 % 0 cb 1013,1 hPa 0,0 l/m 3,2 km/h (1 Bft) W 270 0 min 0,000 mm 0 W/m 7,9 C 8,5 C 11,3 km/h (2 Bft) 100,00 %
18.05.2021 03:30 8,4 C 8,4 C 8,5 C 96 % 0 cb 1013,1 hPa 0,0 l/m 1,6 km/h (1 Bft) W 270 0 min 0,000 mm 0 W/m 7,8 C 8,4 C 11,3 km/h (2 Bft) 100,00 %
18.05.2021 03:40 8,4 C 8,4 C 8,5 C 96 % 0 cb 1013,2 hPa 0,0 l/m 3,2 km/h (1 Bft) SW 225 0 min 0,000 mm 0 W/m 7,8 C 8,4 C 12,9 km/h (3 Bft) 100,00 %
18.05.2021 03:50 8,4 C 8,4 C 8,4 C 96 % 0 cb 1013,2 hPa 0,0 l/m 1,6 km/h (1 Bft) SW 225 0 min 0,000 mm 0 W/m 7,8 C 8,4 C 9,7 km/h (2 Bft) 100,00 %
18.05.2021 04:00 8,3 C 8,3 C 8,4 C 96 % 0 cb 1013,3 hPa 0,0 l/m 1,6 km/h (1 Bft) SW 225 0 min 0,000 mm 0 W/m 7,7 C 8,3 C 8,0 km/h (2 Bft) 100,00 %
18.05.2021 04:10 8,3 C 8,3 C 8,3 C 96 % 0 cb 1013,3 hPa 0,0 l/m 4,8 km/h (1 Bft) SW 225 0 min 0,000 mm 0 W/m 7,7 C 7,9 C 16,1 km/h (3 Bft) 100,00 %
18.05.2021 04:20 8,3 C 8,3 C 8,3 C 96 % 0 cb 1013,3 hPa 0,0 l/m 3,2 km/h (1 Bft) W 270 0 min 0,000 mm 0 W/m 7,7 C 8,3 C 14,5 km/h (3 Bft) 100,00 %
18.05.2021 04:30 8,2 C 8,2 C 8,3 C 96 % 0 cb 1013,4 hPa 0,0 l/m 4,8 km/h (1 Bft) W-SW 247 0 min 0,000 mm 0 W/m 7,6 C 7,8 C 17,7 km/h (3 Bft) 100,00 %
18.05.2021 04:40 8,2 C 8,2 C 8,2 C 96 % 0 cb 1013,4 hPa 0,0 l/m 3,2 km/h (1 Bft) W-SW 247 0 min 0,000 mm 0 W/m 7,6 C 8,2 C 9,7 km/h (2 Bft) 100,00 %
18.05.2021 04:50 8,2 C 8,2 C 8,2 C 96 % 0 cb 1013,6 hPa 0,0 l/m 3,2 km/h (1 Bft) W-SW 247 0 min 0,000 mm 0 W/m 7,6 C 8,2 C 14,5 km/h (3 Bft) 100,00 %
18.05.2021 05:00 8,1 C 8,1 C 8,2 C 96 % 0 cb 1013,6 hPa 0,4 l/m 6,4 km/h (2 Bft) W 270 0 min 0,000 mm 0 W/m 7,5 C 7,2 C 16,1 km/h (3 Bft) 100,00 %
18.05.2021 05:10 8,0 C 8,0 C 8,1 C 96 % 0 cb 1013,5 hPa 0,2 l/m 3,2 km/h (1 Bft) W 270 0 min 0,000 mm 0 W/m 7,4 C 8,0 C 16,1 km/h (3 Bft) 99,56 %
18.05.2021 05:20 7,9 C 7,9 C 8,0 C 96 % 0 cb 1013,6 hPa 0,0 l/m 1,6 km/h (1 Bft) W 270 0 min 0,000 mm 0 W/m 7,3 C 7,9 C 11,3 km/h (2 Bft) 100,00 %
18.05.2021 05:30 7,8 C 7,8 C 7,9 C 96 % 0 cb 1013,5 hPa 0,0 l/m 1,6 km/h (1 Bft) W 270 0 min 0,000 mm 0 W/m 7,2 C 7,8 C 8,0 km/h (2 Bft) 100,00 %
18.05.2021 05:40 7,8 C 7,8 C 7,8 C 96 % 0 cb 1013,6 hPa 0,0 l/m 1,6 km/h (1 Bft) W 270 0 min 0,000 mm 0 W/m 7,2 C 7,8 C 11,3 km/h (2 Bft) 100,00 %
18.05.2021 05:50 7,8 C 7,8 C 7,8 C 96 % 0 cb 1013,6 hPa 0,0 l/m 3,2 km/h (1 Bft) W 270 0 min 0,000 mm 0 W/m 7,2 C 7,8 C 12,9 km/h (3 Bft) 100,00 %
18.05.2021 06:00 7,9 C 7,8 C 7,9 C 96 % 0 cb 1013,6 hPa 0,0 l/m 1,6 km/h (1 Bft) SW 225 0 min 0,000 mm 0 W/m 7,3 C 7,9 C 9,7 km/h (2 Bft) 100,00 %
18.05.2021 06:10 7,9 C 7,9 C 7,9 C 96 % 0 cb 1013,7 hPa 0,0 l/m 1,6 km/h (1 Bft) SW 225 0 min 0,000 mm 5 W/m 7,3 C 7,9 C 6,4 km/h (2 Bft) 100,00 %
18.05.2021 06:20 7,9 C 7,9 C 8,0 C 96 % 0 cb 1014,0 hPa 0,6 l/m 4,8 km/h (1 Bft) SW 225 0 min 0,000 mm 25 W/m 7,3 C 7,4 C 22,5 km/h (4 Bft) 100,00 %
18.05.2021 06:30 7,9 C 7,9 C 7,9 C 96 % 0 cb 1013,9 hPa 1,0 l/m 3,2 km/h (1 Bft) W-SW 247 0 min 0,000 mm 21 W/m 7,3 C 7,9 C 14,5 km/h (3 Bft) 100,00 %
18.05.2021 06:40 7,8 C 7,8 C 7,9 C 96 % 0 cb 1014,0 hPa 0,0 l/m 3,2 km/h (1 Bft) W-SW 247 0 min 0,000 mm 12 W/m 7,2 C 7,8 C 11,3 km/h (2 Bft) 100,00 %
18.05.2021 06:50 7,8 C 7,8 C 7,8 C 96 % 0 cb 1014,0 hPa 0,0 l/m 3,2 km/h (1 Bft) W-SW 247 0 min 0,000 mm 12 W/m 7,2 C 7,8 C 16,1 km/h (3 Bft) 100,00 %
18.05.2021 07:00 7,8 C 7,7 C 7,8 C 96 % 0 cb 1014,1 hPa 0,0 l/m 3,2 km/h (1 Bft) W-SW 247 0 min 0,000 mm 40 W/m 7,2 C 7,8 C 12,9 km/h (3 Bft) 100,00 %
18.05.2021 07:10 7,9 C 7,8 C 7,9 C 96 % 0 cb 1014,1 hPa 0,0 l/m 3,2 km/h (1 Bft) W-SW 247 0 min 0,000 mm 97 W/m 7,3 C 7,9 C 14,5 km/h (3 Bft) 100,00 %
18.05.2021 07:20 8,1 C 7,9 C 8,1 C 97 % 0 cb 1014,0 hPa 0,0 l/m 3,2 km/h (1 Bft) W-SW 247 0 min 0,000 mm 123 W/m 7,7 C 8,1 C 16,1 km/h (3 Bft) 100,00 %
18.05.2021 07:30 8,2 C 8,1 C 8,2 C 96 % 0 cb 1014,0 hPa 0,0 l/m 3,2 km/h (1 Bft) W-SW 247 0 min 0,000 mm 123 W/m 7,6 C 8,2 C 12,9 km/h (3 Bft) 100,00 %
18.05.2021 07:40 8,3 C 8,2 C 8,3 C 96 % 0 cb 1014,0 hPa 0,0 l/m 3,2 km/h (1 Bft) W-SW 247 0 min 0,000 mm 62 W/m 7,7 C 8,3 C 16,1 km/h (3 Bft) 100,00 %
18.05.2021 07:50 8,3 C 8,3 C 8,3 C 96 % 0 cb 1014,0 hPa 0,0 l/m 3,2 km/h (1 Bft) W-SW 247 0 min 0,000 mm 69 W/m 7,7 C 8,3 C 12,9 km/h (3 Bft) 99,56 %
18.05.2021 08:00 8,4 C 8,3 C 8,4 C 96 % 0 cb 1014,2 hPa 0,0 l/m 4,8 km/h (1 Bft) W 270 0 min 0,025 mm 141 W/m 7,8 C 8,0 C 16,1 km/h (3 Bft) 100,00 %
18.05.2021 08:10 8,4 C 8,4 C 8,4 C 96 % 0 cb 1014,3 hPa 0,0 l/m 4,8 km/h (1 Bft) W 270 0 min 0,000 mm 116 W/m 7,8 C 8,0 C 12,9 km/h (3 Bft) 100,00 %
18.05.2021 08:20 8,6 C 8,4 C 8,6 C 96 % 0 cb 1014,4 hPa 0,0 l/m 6,4 km/h (2 Bft) W-SW 247 10 min 0,000 mm 167 W/m 8,0 C 7,8 C 19,3 km/h (3 Bft) 100,00 %
18.05.2021 08:30 8,7 C 8,6 C 8,7 C 96 % 0 cb 1014,6 hPa 0,0 l/m 6,4 km/h (2 Bft) W-SW 247 10 min 0,000 mm 269 W/m 8,1 C 7,9 C 16,1 km/h (3 Bft) 100,00 %
18.05.2021 08:40 8,8 C 8,7 C 8,8 C 95 % 0 cb 1014,7 hPa 0,0 l/m 4,8 km/h (1 Bft) SW 225 10 min 0,000 mm 257 W/m 8,0 C 8,5 C 14,5 km/h (3 Bft) 100,00 %
18.05.2021 08:50 9,1 C 8,8 C 9,1 C 95 % 0 cb 1014,8 hPa 0,0 l/m 6,4 km/h (2 Bft) W 270 10 min 0,000 mm 248 W/m 8,3 C 8,3 C 19,3 km/h (3 Bft) 100,00 %
18.05.2021 09:00 9,2 C 9,0 C 9,2 C 94 % 0 cb 1014,8 hPa 0,0 l/m 6,4 km/h (2 Bft) W-NW 292 10 min 0,076 mm 534 W/m 8,3 C 8,4 C 17,7 km/h (3 Bft) 100,00 %
18.05.2021 09:10 9,3 C 9,2 C 9,3 C 93 % 0 cb 1014,8 hPa 0,0 l/m 6,4 km/h (2 Bft) W-SW 247 10 min 0,000 mm 336 W/m 8,2 C 8,6 C 22,5 km/h (4 Bft) 100,00 %
18.05.2021 09:20 9,7 C 9,3 C 9,7 C 92 % 0 cb 1014,8 hPa 0,0 l/m 6,4 km/h (2 Bft) W-SW 247 10 min 0,000 mm 195 W/m 8,5 C 9,0 C 14,5 km/h (3 Bft) 99,56 %
18.05.2021 09:30 9,5 C 9,5 C 9,7 C 90 % 0 cb 1014,8 hPa 0,0 l/m 8,0 km/h (2 Bft) W 270 10 min 0,000 mm 181 W/m 7,9 C 8,4 C 19,3 km/h (3 Bft) 100,00 %
18.05.2021 09:40 9,7 C 9,5 C 9,7 C 91 % 0 cb 1014,8 hPa 0,0 l/m 4,8 km/h (1 Bft) W-NW 292 10 min 0,000 mm 346 W/m 8,3 C 9,5 C 20,9 km/h (4 Bft) 100,00 %
18.05.2021 09:50 9,4 C 9,4 C 9,7 C 88 % 0 cb 1014,9 hPa 0,2 l/m 8,0 km/h (2 Bft) W 270 0 min 0,000 mm 132 W/m 7,5 C 8,3 C 20,9 km/h (4 Bft) 100,00 %
18.05.2021 10:00 9,2 C 9,2 C 9,4 C 91 % 0 cb 1015,0 hPa 0,4 l/m 4,8 km/h (1 Bft) W 270 0 min 0,102 mm 139 W/m 7,8 C 8,9 C 16,1 km/h (3 Bft) 100,00 %
18.05.2021 10:10 9,2 C 9,1 C 9,2 C 93 % 0 cb 1014,9 hPa 0,4 l/m 3,2 km/h (1 Bft) W-SW 247 10 min 0,000 mm 309 W/m 8,1 C 9,2 C 9,7 km/h (2 Bft) 100,00 %
18.05.2021 10:20 9,7 C 9,2 C 9,7 C 94 % 0 cb 1014,7 hPa 0,0 l/m 4,8 km/h (1 Bft) W-SW 247 10 min 0,000 mm 468 W/m 8,8 C 9,5 C 16,1 km/h (3 Bft) 100,00 %
18.05.2021 10:30 9,9 C 9,7 C 10,0 C 93 % 0 cb 1014,7 hPa 0,0 l/m 6,4 km/h (2 Bft) S-SW 202 10 min 0,000 mm 332 W/m 8,8 C 9,3 C 19,3 km/h (3 Bft) 100,00 %
18.05.2021 10:40 10,2 C 10,0 C 10,2 C 93 % 0 cb 1014,6 hPa 0,0 l/m 4,8 km/h (1 Bft) W-SW 247 10 min 0,000 mm 323 W/m 9,1 C 10,2 C 14,5 km/h (3 Bft) 100,00 %
18.05.2021 10:50 10,0 C 10,0 C 10,2 C 90 % 0 cb 1014,6 hPa 0,0 l/m 8,0 km/h (2 Bft) W 270 10 min 0,000 mm 200 W/m 8,4 C 9,0 C 19,3 km/h (3 Bft) 100,00 %
18.05.2021 11:00 9,9 C 9,8 C 10,0 C 91 % 0 cb 1014,7 hPa 0,0 l/m 6,4 km/h (2 Bft) W 270 10 min 0,127 mm 276 W/m 8,5 C 9,3 C 22,5 km/h (4 Bft) 100,00 %
18.05.2021 11:10 10,1 C 9,9 C 10,1 C 92 % 0 cb 1014,6 hPa 0,0 l/m 6,4 km/h (2 Bft) W-NW 292 10 min 0,000 mm 243 W/m 8,9 C 10,1 C 17,7 km/h (3 Bft) 100,00 %
18.05.2021 11:20 10,2 C 10,0 C 10,2 C 91 % 0 cb 1014,6 hPa 0,0 l/m 6,4 km/h (2 Bft) W 270 10 min 0,000 mm 348 W/m 8,8 C 10,2 C 20,9 km/h (4 Bft) 100,00 %
18.05.2021 11:30 10,6 C 10,2 C 10,6 C 90 % 0 cb 1014,5 hPa 0,0 l/m 6,4 km/h (2 Bft) W 270 10 min 0,000 mm 241 W/m 9,0 C 10,6 C 17,7 km/h (3 Bft) 100,00 %
18.05.2021 11:40 10,8 C 10,6 C 10,8 C 87 % 0 cb 1014,4 hPa 0,0 l/m 6,4 km/h (2 Bft) W-NW 292 10 min 0,000 mm 974 W/m 8,7 C 10,8 C 19,3 km/h (3 Bft) 100,00 %
18.05.2021 11:50 10,4 C 10,4 C 10,8 C 86 % 0 cb 1014,6 hPa 0,0 l/m 8,0 km/h (2 Bft) W-SW 247 10 min 0,000 mm 178 W/m 8,2 C 10,4 C 22,5 km/h (4 Bft) 100,00 %
18.05.2021 12:00 9,7 C 9,7 C 10,4 C 87 % 0 cb 1014,5 hPa 0,0 l/m 4,8 km/h (1 Bft) W 270 10 min 0,127 mm 253 W/m 7,6 C 9,5 C 16,1 km/h (3 Bft) 100,00 %
18.05.2021 12:10 10,4 C 9,7 C 10,4 C 93 % 0 cb 1014,5 hPa 0,0 l/m 4,8 km/h (1 Bft) W 270 10 min 0,000 mm 1086 W/m 9,3 C 10,4 C 14,5 km/h (3 Bft) 100,00 %
18.05.2021 12:20 11,0 C 10,4 C 11,1 C 90 % 0 cb 1014,5 hPa 0,0 l/m 6,4 km/h (2 Bft) W-SW 247 10 min 0,000 mm 1044 W/m 9,4 C 11,0 C 27,4 km/h (4 Bft) 99,56 %
18.05.2021 12:30 10,3 C 10,3 C 11,0 C 88 % 0 cb 1014,6 hPa 0,4 l/m 4,8 km/h (1 Bft) W-SW 247 10 min 0,000 mm 174 W/m 8,4 C 10,3 C 22,5 km/h (4 Bft) 100,00 %
18.05.2021 12:40 10,3 C 10,2 C 10,3 C 91 % 0 cb 1014,7 hPa 0,0 l/m 3,2 km/h (1 Bft) W-SW 247 10 min 0,000 mm 628 W/m 8,9 C 10,3 C 12,9 km/h (3 Bft) 100,00 %
18.05.2021 12:50 9,9 C 9,9 C 10,3 C 88 % 0 cb 1014,6 hPa 0,2 l/m 8,0 km/h (2 Bft) W 270 10 min 0,000 mm 188 W/m 8,0 C 8,9 C 19,3 km/h (3 Bft) 100,00 %
18.05.2021 13:00 9,8 C 9,8 C 9,9 C 90 % 0 cb 1014,4 hPa 0,0 l/m 6,4 km/h (2 Bft) W-NW 292 10 min 0,178 mm 378 W/m 8,2 C 9,1 C 19,3 km/h (3 Bft) 100,00 %
18.05.2021 13:10 10,3 C 9,8 C 10,3 C 92 % 0 cb 1014,4 hPa 0,0 l/m 6,4 km/h (2 Bft) W 270 10 min 0,000 mm 782 W/m 9,1 C 10,3 C 19,3 km/h (3 Bft) 100,00 %
18.05.2021 13:20 11,0 C 10,3 C 11,0 C 92 % 0 cb 1014,2 hPa 0,0 l/m 6,4 km/h (2 Bft) W 270 10 min 0,000 mm 533 W/m 9,8 C 11,0 C 20,9 km/h (4 Bft) 100,00 %
18.05.2021 13:30 11,1 C 11,0 C 11,2 C 85 % 0 cb 1014,3 hPa 0,0 l/m 11,3 km/h (2 Bft) W 270 10 min 0,000 mm 482 W/m 8,7 C 11,1 C 29,0 km/h (5 Bft) 100,00 %
18.05.2021 13:40 11,4 C 11,1 C 11,4 C 87 % 0 cb 1014,2 hPa 0,0 l/m 8,0 km/h (2 Bft) W 270 10 min 0,000 mm 617 W/m 9,3 C 11,4 C 24,1 km/h (4 Bft) 100,00 %
18.05.2021 13:50 11,4 C 11,4 C 11,6 C 84 % 0 cb 1014,5 hPa 0,0 l/m 11,3 km/h (2 Bft) W-NW 292 10 min 0,000 mm 496 W/m 8,8 C 11,4 C 25,7 km/h (4 Bft) 97,37 %
18.05.2021 14:00 10,7 C 10,7 C 11,3 C 86 % 0 cb 1014,3 hPa 0,2 l/m 6,4 km/h (2 Bft) NW 315 10 min 0,203 mm 311 W/m 8,5 C 10,7 C 19,3 km/h (3 Bft) 100,00 %
18.05.2021 14:10 10,8 C 10,6 C 10,8 C 89 % 0 cb 1014,2 hPa 0,0 l/m 6,4 km/h (2 Bft) W 270 10 min 0,000 mm 404 W/m 9,1 C 10,8 C 16,1 km/h (3 Bft) 100,00 %
18.05.2021 14:20 11,8 C 10,9 C 11,8 C 86 % 0 cb 1014,0 hPa 0,0 l/m 8,0 km/h (2 Bft) W 270 10 min 0,000 mm 1092 W/m 9,5 C 11,8 C 22,5 km/h (4 Bft) 100,00 %
18.05.2021 14:30 12,0 C 11,8 C 12,2 C 82 % 0 cb 1014,1 hPa 0,0 l/m 11,3 km/h (2 Bft) W-NW 292 10 min 0,000 mm 441 W/m 9,0 C 12,0 C 33,8 km/h (5 Bft) 100,00 %
18.05.2021 14:40 11,0 C 11,0 C 12,0 C 85 % 0 cb 1014,2 hPa 0,0 l/m 11,3 km/h (2 Bft) W-NW 292 10 min 0,000 mm 373 W/m 8,6 C 11,0 C 24,1 km/h (4 Bft) 100,00 %
18.05.2021 14:50 11,3 C 10,9 C 11,3 C 86 % 0 cb 1014,2 hPa 0,0 l/m 9,7 km/h (2 Bft) W 270 10 min 0,000 mm 1007 W/m 9,0 C 11,3 C 22,5 km/h (4 Bft) 100,00 %
18.05.2021 15:00 11,6 C 11,3 C 11,6 C 84 % 0 cb 1014,1 hPa 0,0 l/m 8,0 km/h (2 Bft) W 270 10 min 0,305 mm 861 W/m 9,0 C 11,6 C 20,9 km/h (4 Bft) 100,00 %
18.05.2021 15:10 12,2 C 11,6 C 12,2 C 84 % 0 cb 1014,1 hPa 0,0 l/m 8,0 km/h (2 Bft) W-SW 247 10 min 0,000 mm 874 W/m 9,6 C 12,2 C 20,9 km/h (4 Bft) 100,00 %
18.05.2021 15:20 12,5 C 12,2 C 12,5 C 81 % 0 cb 1014,0 hPa 0,0 l/m 8,0 km/h (2 Bft) W-NW 292 10 min 0,000 mm 891 W/m 9,3 C 12,5 C 19,3 km/h (3 Bft) 100,00 %
18.05.2021 15:30 12,7 C 12,5 C 12,7 C 79 % 0 cb 1014,0 hPa 0,0 l/m 8,0 km/h (2 Bft) W 270 10 min 0,000 mm 998 W/m 9,2 C 12,7 C 20,9 km/h (4 Bft) 100,00 %
18.05.2021 15:40 12,4 C 12,4 C 12,7 C 79 % 0 cb 1013,9 hPa 0,0 l/m 6,4 km/h (2 Bft) W-SW 247 10 min 0,000 mm 283 W/m 8,9 C 12,4 C 22,5 km/h (4 Bft) 100,00 %
18.05.2021 15:50 12,7 C 12,3 C 12,7 C 81 % 0 cb 1013,9 hPa 0,0 l/m 6,4 km/h (2 Bft) W-SW 247 10 min 0,000 mm 904 W/m 9,5 C 12,7 C 16,1 km/h (3 Bft) 100,00 %
18.05.2021 16:00 13,4 C 12,7 C 13,4 C 78 % 0 cb 1013,7 hPa 0,0 l/m 6,4 km/h (2 Bft) W 270 10 min 0,305 mm 921 W/m 9,6 C 13,4 C 19,3 km/h (3 Bft) 100,00 %
18.05.2021 16:10 13,7 C 13,4 C 13,7 C 78 % 0 cb 1013,6 hPa 0,0 l/m 4,8 km/h (1 Bft) W-SW 247 10 min 0,000 mm 364 W/m 9,9 C 13,7 C 14,5 km/h (3 Bft) 100,00 %
18.05.2021 16:20 13,8 C 13,7 C 13,8 C 76 % 0 cb 1013,6 hPa 0,0 l/m 8,0 km/h (2 Bft) W 270 10 min 0,000 mm 418 W/m 9,6 C 13,8 C 22,5 km/h (4 Bft) 98,25 %
18.05.2021 16:30 14,3 C 13,8 C 14,3 C 77 % 0 cb 1013,5 hPa 0,0 l/m 6,4 km/h (2 Bft) W 270 10 min 0,000 mm 893 W/m 10,3 C 14,3 C 16,1 km/h (3 Bft) 100,00 %
18.05.2021 16:40 14,4 C 14,4 C 14,6 C 74 % 0 cb 1013,6 hPa 0,0 l/m 4,8 km/h (1 Bft) W-SW 247 10 min 0,000 mm 204 W/m 9,8 C 14,4 C 17,7 km/h (3 Bft) 100,00 %
18.05.2021 16:50 13,7 C 13,7 C 14,4 C 71 % 0 cb 1013,7 hPa 0,0 l/m 9,7 km/h (2 Bft) W 270 0 min 0,000 mm 141 W/m 8,5 C 13,7 C 20,9 km/h (4 Bft) 100,00 %
18.05.2021 17:00 12,6 C 12,6 C 13,7 C 75 % 0 cb 1014,1 hPa 0,2 l/m 11,3 km/h (2 Bft) W 270 0 min 0,229 mm 35 W/m 8,3 C 12,6 C 29,0 km/h (5 Bft) 100,00 %
18.05.2021 17:10 11,1 C 11,1 C 12,6 C 83 % 0 cb 1014,2 hPa 2,0 l/m 4,8 km/h (1 Bft) NW 315 0 min 0,000 mm 28 W/m 8,3 C 11,1 C 17,7 km/h (3 Bft) 100,00 %
18.05.2021 17:20 10,2 C 10,2 C 11,1 C 86 % 0 cb 1014,2 hPa 0,2 l/m 4,8 km/h (1 Bft) NW 315 0 min 0,000 mm 58 W/m 8,0 C 10,2 C 12,9 km/h (3 Bft) 100,00 %
18.05.2021 17:30 9,8 C 9,8 C 10,2 C 89 % 0 cb 1014,2 hPa 0,0 l/m 3,2 km/h (1 Bft) W-NW 292 0 min 0,000 mm 90 W/m 8,1 C 9,8 C 9,7 km/h (2 Bft) 100,00 %
18.05.2021 17:40 9,7 C 9,7 C 9,8 C 91 % 0 cb 1014,4 hPa 0,0 l/m 3,2 km/h (1 Bft) NW 315 0 min 0,000 mm 107 W/m 8,3 C 9,7 C 11,3 km/h (2 Bft) 100,00 %
18.05.2021 17:50 9,8 C 9,7 C 9,8 C 92 % 0 cb 1014,6 hPa 0,2 l/m 3,2 km/h (1 Bft) NW 315 10 min 0,000 mm 156 W/m 8,6 C 9,8 C 8,0 km/h (2 Bft) 100,00 %
18.05.2021 18:00 10,1 C 9,8 C 10,1 C 92 % 0 cb 1014,7 hPa 0,0 l/m 4,8 km/h (1 Bft) NW 315 10 min 0,051 mm 246 W/m 8,9 C 10,1 C 12,9 km/h (3 Bft) 100,00 %
18.05.2021 18:10 10,3 C 10,1 C 10,3 C 93 % 0 cb 1014,8 hPa 0,0 l/m 3,2 km/h (1 Bft) NW 315 10 min 0,000 mm 244 W/m 9,2 C 10,3 C 8,0 km/h (2 Bft) 100,00 %
18.05.2021 18:20 10,3 C 10,3 C 10,4 C 90 % 0 cb 1015,0 hPa 0,0 l/m 3,2 km/h (1 Bft) NW 315 0 min 0,000 mm 113 W/m 8,7 C 10,3 C 12,9 km/h (3 Bft) 100,00 %
18.05.2021 18:30 9,8 C 9,8 C 10,3 C 88 % 0 cb 1015,0 hPa 0,0 l/m 3,2 km/h (1 Bft) N 360 0 min 0,000 mm 88 W/m 7,9 C 9,8 C 9,7 km/h (2 Bft) 100,00 %
18.05.2021 18:40 9,4 C 9,4 C 9,8 C 88 % 0 cb 1014,9 hPa 0,0 l/m 4,8 km/h (1 Bft) N-NW 337 0 min 0,000 mm 116 W/m 7,5 C 9,1 C 20,9 km/h (4 Bft) 100,00 %
18.05.2021 18:50 9,2 C 9,2 C 9,4 C 88 % 0 cb 1014,8 hPa 0,0 l/m 4,8 km/h (1 Bft) NW 315 0 min 0,000 mm 114 W/m 7,3 C 8,9 C 14,5 km/h (3 Bft) 100,00 %
18.05.2021 19:00 9,4 C 9,2 C 9,4 C 89 % 0 cb 1014,6 hPa 0,0 l/m 3,2 km/h (1 Bft) NW 315 0 min 0,051 mm 102 W/m 7,7 C 9,4 C 8,0 km/h (2 Bft) 100,00 %
18.05.2021 19:10 9,7 C 9,4 C 9,7 C 88 % 0 cb 1014,7 hPa 0,0 l/m 1,6 km/h (1 Bft) NW 315 0 min 0,000 mm 76 W/m 7,8 C 9,7 C 8,0 km/h (2 Bft) 100,00 %
18.05.2021 19:20 10,1 C 9,7 C 10,1 C 88 % 0 cb 1014,8 hPa 0,0 l/m 1,6 km/h (1 Bft) NW 315 0 min 0,000 mm 97 W/m 8,2 C 10,1 C 6,4 km/h (2 Bft) 100,00 %
18.05.2021 19:30 10,3 C 10,1 C 10,3 C 87 % 0 cb 1014,9 hPa 0,0 l/m 3,2 km/h (1 Bft) NW 315 0 min 0,000 mm 104 W/m 8,2 C 10,3 C 11,3 km/h (2 Bft) 100,00 %
18.05.2021 19:40 10,2 C 10,2 C 10,3 C 87 % 0 cb 1015,0 hPa 0,0 l/m 3,2 km/h (1 Bft) NW 315 0 min 0,000 mm 93 W/m 8,1 C 10,2 C 11,3 km/h (2 Bft) 100,00 %
18.05.2021 19:50 10,1 C 10,1 C 10,2 C 88 % 0 cb 1015,1 hPa 0,0 l/m 1,6 km/h (1 Bft) NW 315 0 min 0,000 mm 83 W/m 8,2 C 10,1 C 6,4 km/h (2 Bft) 100,00 %
18.05.2021 20:00 10,0 C 10,0 C 10,1 C 89 % 0 cb 1015,1 hPa 0,0 l/m 1,6 km/h (1 Bft) NW 315 0 min 0,051 mm 62 W/m 8,3 C 10,0 C 4,8 km/h (1 Bft) 100,00 %
18.05.2021 20:10 9,9 C 9,9 C 10,0 C 88 % 0 cb 1015,3 hPa 0,0 l/m 1,6 km/h (1 Bft) NW 315 0 min 0,000 mm 47 W/m 8,0 C 9,9 C 8,0 km/h (2 Bft) 100,00 %
18.05.2021 20:20 9,8 C 9,8 C 9,9 C 88 % 0 cb 1015,4 hPa 0,0 l/m 1,6 km/h (1 Bft) NW 315 0 min 0,000 mm 42 W/m 7,9 C 9,8 C 6,4 km/h (2 Bft) 100,00 %
18.05.2021 20:30 9,7 C 9,7 C 9,8 C 88 % 0 cb 1015,4 hPa 0,0 l/m 1,6 km/h (1 Bft) NW 315 0 min 0,000 mm 39 W/m 7,8 C 9,7 C 4,8 km/h (1 Bft) 100,00 %
18.05.2021 20:40 9,6 C 9,6 C 9,7 C 88 % 0 cb 1015,5 hPa 0,0 l/m 1,6 km/h (1 Bft) NW 315 0 min 0,000 mm 21 W/m 7,7 C 9,6 C 6,4 km/h (2 Bft) 100,00 %
18.05.2021 20:50 9,4 C 9,4 C 9,6 C 88 % 0 cb 1015,6 hPa 0,0 l/m 3,2 km/h (1 Bft) NW 315 0 min 0,000 mm 14 W/m 7,5 C 9,4 C 8,0 km/h (2 Bft) 100,00 %
18.05.2021 21:00 9,3 C 9,3 C 9,4 C 89 % 0 cb 1015,8 hPa 0,0 l/m 3,2 km/h (1 Bft) NW 315 0 min 0,025 mm 9 W/m 7,6 C 9,3 C 8,0 km/h (2 Bft) 100,00 %
18.05.2021 21:10 9,1 C 9,1 C 9,3 C 89 % 0 cb 1015,8 hPa 0,0 l/m 1,6 km/h (1 Bft) NW 315 0 min 0,000 mm 5 W/m 7,4 C 9,1 C 6,4 km/h (2 Bft) 100,00 %
18.05.2021 21:20 8,9 C 8,9 C 9,1 C 89 % 0 cb 1015,9 hPa 0,0 l/m 1,6 km/h (1 Bft) NW 315 0 min 0,000 mm 0 W/m 7,2 C 8,9 C 4,8 km/h (1 Bft) 100,00 %
18.05.2021 21:30 8,7 C 8,7 C 8,9 C 89 % 0 cb 1016,0 hPa 0,0 l/m 0,0 km/h (0 Bft) NW 315 0 min 0,000 mm 0 W/m 7,0 C 8,7 C 1,6 km/h (1 Bft) 100,00 %
18.05.2021 21:40 8,4 C 8,3 C 8,6 C 90 % 0 cb 1016,1 hPa 0,0 l/m 0,0 km/h (0 Bft) NW 315 0 min 0,000 mm 0 W/m 6,9 C 8,4 C 1,6 km/h (1 Bft) 100,00 %
18.05.2021 21:50 8,1 C 8,1 C 8,3 C 90 % 0 cb 1016,2 hPa 0,0 l/m 0,0 km/h (0 Bft) NW 315 0 min 0,000 mm 0 W/m 6,6 C 8,1 C 1,6 km/h (1 Bft) 100,00 %
18.05.2021 22:00 7,8 C 7,8 C 8,1 C 90 % 0 cb 1016,2 hPa 0,0 l/m 0,0 km/h (0 Bft) N 0 0 min 0,000 mm 0 W/m 6,3 C 7,8 C 0,0 km/h (0 Bft) 100,00 %
18.05.2021 22:10 7,5 C 7,5 C 7,8 C 90 % 0 cb 1016,4 hPa 0,0 l/m 0,0 km/h (0 Bft) N 0 0 min 0,000 mm 0 W/m 6,0 C 7,5 C 0,0 km/h (0 Bft) 100,00 %
18.05.2021 22:20 7,3 C 7,3 C 7,5 C 91 % 0 cb 1016,5 hPa 0,0 l/m 0,0 km/h (0 Bft) NW 315 0 min 0,000 mm 0 W/m 5,9 C 7,3 C 3,2 km/h (1 Bft) 100,00 %
18.05.2021 22:30 7,2 C 7,2 C 7,3 C 92 % 0 cb 1016,6 hPa 0,0 l/m 0,0 km/h (0 Bft) NW 315 0 min 0,000 mm 0 W/m 6,0 C 7,2 C 4,8 km/h (1 Bft) 99,56 %
18.05.2021 22:40 7,2 C 7,2 C 7,2 C 93 % 0 cb 1016,7 hPa 0,0 l/m 0,0 km/h (0 Bft) NW 315 0 min 0,000 mm 0 W/m 6,1 C 7,2 C 4,8 km/h (1 Bft) 100,00 %
18.05.2021 22:50 7,1 C 7,1 C 7,2 C 93 % 0 cb 1016,8 hPa 0,0 l/m 0,0 km/h (0 Bft) NW 315 0 min 0,000 mm 0 W/m 6,0 C 7,1 C 1,6 km/h (1 Bft) 100,00 %
18.05.2021 23:00 6,9 C 6,9 C 7,1 C 93 % 0 cb 1016,8 hPa 0,0 l/m 0,0 km/h (0 Bft) NW 315 0 min 0,000 mm 0 W/m 5,8 C 6,9 C 1,6 km/h (1 Bft) 100,00 %
18.05.2021 23:10 6,8 C 6,8 C 6,9 C 94 % 0 cb 1016,8 hPa 0,0 l/m 0,0 km/h (0 Bft) NW 315 0 min 0,000 mm 0 W/m 5,9 C 6,8 C 6,4 km/h (2 Bft) 100,00 %
18.05.2021 23:20 6,9 C 6,9 C 6,9 C 94 % 0 cb 1016,8 hPa 0,0 l/m 0,0 km/h (0 Bft) NW 315 0 min 0,000 mm 0 W/m 6,0 C 6,9 C 4,8 km/h (1 Bft) 100,00 %
18.05.2021 23:30 6,9 C 6,9 C 6,9 C 94 % 0 cb 1016,9 hPa 0,0 l/m 0,0 km/h (0 Bft) NW 315 0 min 0,000 mm 0 W/m 6,0 C 6,9 C 3,2 km/h (1 Bft) 100,00 %
18.05.2021 23:40 6,8 C 6,8 C 6,9 C 94 % 0 cb 1016,9 hPa 0,0 l/m 1,6 km/h (1 Bft) NW 315 0 min 0,000 mm 0 W/m 5,9 C 6,8 C 6,4 km/h (2 Bft) 100,00 %
18.05.2021 23:50 6,8 C 6,8 C 6,8 C 94 % 0 cb 1016,9 hPa 0,0 l/m 0,0 km/h (0 Bft) NW 315 0 min 0,000 mm 0 W/m 5,9 C 6,8 C 4,8 km/h (1 Bft) 100,00 %
_ Min-Zeit 23:10 23:10 23:50 16:50 00:00 00:10 - 00:50 - - - - - 23:00 23:10 22:00 13:50
Minimum _ 6,8 C 6,8 C 6,8 C 71 % 0 cb 1012,2 hPa - 0,0 km/h (0 Bft) - - - - - 5,8 C 6,8 C 0,0 km/h (0 Bft) 97,37 %
_ Max-Zeit 16:40 16:40 16:40 07:20 00:00 23:30 17:10 13:30 - - 08:20 15:00 14:20 16:30 16:40 14:30 00:10
Maximum _ 14,6 C 14,4 C 14,6 C 97 % 0 cb 1016,9 hPa 2,0 l/m 11,3 km/h
W (2 Bft)
- - 10 min 0,305 mm 1092 W/m 10,3 C 14,4 C 33,8 km/h
W (5 Bft)
100,00 %
Durchschnitt _ 9,4 C 9,3 C 9,5 C 91 % 0 cb 1014,4 hPa #7,6 l/m 3,9 km/h (1 Bft) W - #8:40 h #1,855 mm 305 W/m 7,9 C 9,3 C 13,1 km/h (3 Bft) 99,94 %
Wetterstation Gdesweiler